[[{"header":{"parameterUnit":"m.s-1","parameterCategory":1,"la1":30.2991,"la2":30.254,"lo1":-89.0895,"lo2":-89.0444,"dy":0.0017,"dx":0.0017,"nx":28,"ny":28,"refTime":"2025-03-01T09:00:00:Z","depth":0,"parameterNumber":2,"parameterNumberName":"U-component_of_WINDS"},"data":[0,0,0,0,0,0,0,0,0,0,0,0,0,0,0,0,0,0,0,0,0,0,0,0,0,0,0,0,0,0,0,0,0,0,0,0,0,0,0,0,0,0,0,0,0,0,0,0,0,0,0,0,0,0,0,0,0,0,0.2552,0.2553,0,0.2682,0.2683,0.2685,0.2729,0.2728,0.2728,0.2727,0.2864,0.2868,0.2872,0,0,0,0,0,0,0,0,0,0,0,0,0,0.235,0.2353,0.2551,0.2553,0.2555,0.2681,0.2683,0.2685,0.2729,0.2728,0.2728,0.2727,0.2863,0.2868,0.2873,0,0,0,0,0,0,0,0,0,0,0,0,0,0.2455,0.2355,0.2551,0.2592,0.2597,0.2681,0.2683,0.2685,0.2729,0.2728,0.2728,0.2727,0.2861,0.2867,0.2873,0.2928,0,0,0.2892,0.2895,0,0,0,0,0,0,0,0,0.2449,0.2462,0.2584,0.2589,0.2595,0.2688,0.2662,0.2767,0.2729,0.2679,0.2727,0.2726,0.2807,0.2817,0.2843,0.2934,0.294,0.2893,0.2897,0.2899,0.2901,0,0,0,0,0,0,0,0.2441,0.2457,0.2603,0.2586,0.2593,0.2607,0.2621,0.2682,0.2746,0.2683,0.2687,0.2701,0.2809,0.2837,0.2847,0.2942,0.2893,0.2898,0.2902,0.2905,0.3093,0.3094,0,0,0,0,0,0,0.2426,0.245,0.2599,0.2607,0.2518,0.2611,0.2626,0.2659,0.2745,0.2757,0.2702,0.2703,0.2827,0.284,0.2852,0.2926,0.2899,0.2905,0.2909,0.3091,0.3093,0.3094,0,0,0,0,0,0,0.2422,0.2439,0.2594,0.253,0.255,0.2615,0.2652,0.2662,0.269,0.2759,0.2771,0.2718,0.2827,0.2843,0.291,0.2932,0.2908,0.2914,0.309,0.3092,0.3094,0.3072,0,0,0,0,0,0,0.2416,0.2437,0.2456,0.253,0.2554,0.2647,0.2653,0.2665,0.27,0.2703,0.2778,0.279,0.2828,0.2901,0.2916,0.294,0.2918,0.3088,0.3091,0.3093,0.3071,0.3073,0.3075,0,0,0,0,0,0.2408,0.2444,0.2456,0.2474,0.2578,0.2648,0.2662,0.2703,0.2701,0.2723,0.2769,0.2787,0.2927,0.2907,0.2925,0.2951,0.3087,0.309,0.3093,0.307,0.3073,0.3075,0,0,0,0,0,0,0.237,0.2454,0.2469,0.2528,0.2581,0.2655,0.2682,0.2703,0.2758,0.2758,0.2809,0.2826,0.2891,0.2927,0.2904,0.3012,0.3008,0.3015,0.2985,0.2988,0.299,0.298,0.2924,0,0,0,0,0,0.2368,0.2416,0.2487,0.2533,0.2559,0.2616,0.2648,0.2677,0.2733,0.2756,0.2806,0.2862,0.292,0.2955,0.3011,0.3077,0.3098,0.3104,0.3106,0.3107,0.3113,0.3157,0.3163,0.3104,0.3104,0.3104,0,0,0.2365,0.2417,0.2444,0.2527,0.2571,0.2623,0.2634,0.2686,0.2727,0.2764,0.2831,0.2871,0.2937,0.3006,0.3038,0.3038,0.3134,0.3111,0.3111,0.3116,0.3161,0.3166,0.3171,0.3106,0.3105,0.3105,0,0,0.2387,0.2429,0.2474,0.2519,0.2586,0.2626,0.2637,0.271,0.2738,0.2806,0.2837,0.2887,0.2983,0.3031,0.3068,0.3116,0.3138,0.3133,0.3142,0.3185,0.319,0.3194,0.3217,0.3223,0.3138,0.3138,0.3138,0,0.2374,0.2451,0.2495,0.2548,0.2587,0.2624,0.2674,0.2716,0.2798,0.2825,0.2824,0.295,0.2997,0.308,0.3093,0.312,0.3139,0.3124,0.3185,0.319,0.3195,0.3217,0.3225,0.3138,0.3138,0.3138,0.3138,0,0.2436,0.2489,0.2519,0.2599,0.264,0.2691,0.2747,0.2785,0.2812,0.2853,0.2926,0.2985,0.3056,0.3078,0.3103,0.3168,0.3167,0.3175,0.3172,0.3199,0.3221,0.3229,0.3137,0.3137,0.3137,0.3137,0,0,0.2431,0.254,0.2551,0.259,0.267,0.2714,0.277,0.284,0.2874,0.2932,0.2983,0.3067,0.3077,0.3119,0.3152,0.3189,0.3231,0.3194,0.3197,0.3202,0.3312,0.3307,0.3316,0.3246,0.3248,0.3249,0.3308,0,0.2466,0.2564,0.261,0.269,0.2744,0.2784,0.2834,0.2891,0.2932,0.2987,0.3034,0.3094,0.31,0.3127,0.3166,0.3217,0.3254,0.3214,0.3298,0.3301,0.3282,0.3326,0.3319,0.3372,0.3316,0.3318,0.3319,0,0.2517,0.2576,0.2662,0.2743,0.2767,0.281,0.2883,0.2932,0.3001,0.3029,0.308,0.3113,0.3178,0.3172,0.3266,0.3237,0.3276,0.3307,0.331,0.3321,0.3312,0.3341,0.3389,0.3398,0.3332,0.3331,0.333,0,0.251,0.2612,0.2678,0.271,0.2804,0.2835,0.2877,0.2944,0.2986,0.3051,0.308,0.315,0.319,0.3246,0.33,0.3289,0.3391,0.3387,0.342,0.3419,0.344,0.3438,0.3498,0.346,0.346,0.346,0.346,0,0.2544,0.2596,0.2677,0.2717,0.278,0.2834,0.2895,0.294,0.3001,0.3055,0.3094,0.3145,0.3211,0.3271,0.3314,0.3389,0.3405,0.3434,0.3445,0.3431,0.3428,0.3458,0.3456,0.3462,0.3462,0.3461,0.3461,0,0.2545,0.2601,0.2677,0.2763,0.2786,0.2828,0.2903,0.2947,0.2993,0.3061,0.3081,0.3154,0.3228,0.3287,0.3382,0.3412,0.3492,0.3503,0.3469,0.3475,0.3506,0.3504,0.3588,0.3605,0.3553,0.3554,0.3554,0,0.2563,0.2605,0.2697,0.2736,0.2777,0.2838,0.2883,0.2941,0.2986,0.3072,0.3107,0.3184,0.3248,0.3366,0.3429,0.3505,0.352,0.3545,0.3532,0.352,0.3526,0.3524,0.3531,0.3546,0.3547,0.3547,0.3547,0,0.2591,0.2619,0.268,0.2754,0.2807,0.2867,0.2929,0.2959,0.303,0.308,0.3156,0.3207,0.3308,0.3386,0.347,0.3517,0.3546,0.3551,0.3564,0.3551,0.3531,0.3547,0.3476,0.3549,0.3549,0.3548,0.3548,0.3548,0.2604,0.2646,0.2719,0.2788,0.2842,0.2901,0.2948,0.3003,0.3067,0.3153,0.3185,0.3265,0.3341,0.3457,0.3505,0.3572,0.3574,0.3591,0.3596,0.3599,0.36,0.352,0.3587,0.3587,0.3587,0.3587,0.3587,0,0.2637,0.2688,0.2752,0.2839,0.2896,0.2918,0.2991,0.3037,0.3107,0.3175,0.3239,0.3332,0.341,0.3482,0.3565,0.3605,0.3621,0.3625,0.3624,0.3636,0.3591,0.3574,0.3612,0.3612,0.3612,0.3612,0.3612,0.3612,0.2661,0.2734,0.2772,0.2876,0.2927,0.3006,0.3046,0.3103,0.3158,0.3259,0.3325,0.3372,0.3444,0.3534,0.3609,0.3629,0.3659,0.3661,0.3684,0.3641,0.3638,0.3635,0.3619,0.3666,0.3666,0.3724,0.3725,0.3725]},{"header":{"parameterUnit":"m.s-1","parameterCategory":1,"la1":30.2991,"la2":30.254,"lo1":-89.0895,"lo2":-89.0444,"dy":0.0017,"dx":0.0017,"nx":28,"ny":28,"refTime":"2025-03-01T09:00:00:Z","depth":0,"parameterNumber":3,"parameterNumberName":"V-component_of_WINDS"},"data":[0,0,0,0,0,0,0,0,0,0,0,0,0,0,0,0,0,0,0,0,0,0,0,0,0,0,0,0,0,0,0,0,0,0,0,0,0,0,0,0,0,0,0,0,0,0,0,0,0,0,0,0,0,0,0,0,0,0,-4.5058,-4.5057,0,-4.4944,-4.4943,-4.4941,-4.489,-4.489,-4.489,-4.489,-4.4767,-4.4763,-4.476,0,0,0,0,0,0,0,0,0,0,0,0,0,-4.5223,-4.5221,-4.5058,-4.5057,-4.5055,-4.4944,-4.4943,-4.4941,-4.489,-4.489,-4.489,-4.489,-4.4768,-4.4764,-4.476,0,0,0,0,0,0,0,0,0,0,0,0,0,-4.5134,-4.522,-4.5059,-4.5017,-4.5012,-4.4944,-4.4942,-4.4941,-4.489,-4.489,-4.489,-4.489,-4.4769,-4.4764,-4.4759,-4.4723,0,0,-4.4743,-4.4741,0,0,0,0,0,0,0,0,-4.514,-4.5128,-4.5024,-4.5019,-4.5014,-4.4931,-4.4955,-4.4867,-4.4889,-4.4936,-4.489,-4.489,-4.4821,-4.4811,-4.4789,-4.4717,-4.4712,-4.4743,-4.474,-4.4738,-4.4736,0,0,0,0,0,0,0,-4.5146,-4.5133,-4.5013,-4.5023,-4.5016,-4.5,-4.4988,-4.4938,-4.4878,-4.4932,-4.4928,-4.4915,-4.4818,-4.4794,-4.4786,-4.471,-4.4743,-4.4739,-4.4735,-4.4733,-4.4597,-4.4597,0,0,0,0,0,0,-4.516,-4.5139,-4.5016,-4.5009,-4.5079,-4.4997,-4.4983,-4.4957,-4.4879,-4.4867,-4.4915,-4.4913,-4.4803,-4.4792,-4.4782,-4.4731,-4.4738,-4.4733,-4.473,-4.4598,-4.4597,-4.4596,0,0,0,0,0,0,-4.5164,-4.515,-4.5021,-4.5073,-4.5055,-4.4994,-4.4965,-4.4955,-4.4932,-4.4866,-4.4855,-4.4903,-4.4803,-4.4789,-4.4737,-4.4726,-4.4731,-4.4726,-4.4598,-4.4597,-4.4597,-4.4631,0,0,0,0,0,0,-4.5169,-4.5151,-4.5139,-4.5073,-4.5053,-4.4982,-4.4965,-4.4953,-4.4924,-4.492,-4.4852,-4.484,-4.4802,-4.4745,-4.4732,-4.4719,-4.4722,-4.4599,-4.4598,-4.4597,-4.4631,-4.4632,-4.4633,0,0,0,0,0,-4.5175,-4.5153,-4.5139,-4.5125,-4.5037,-4.4981,-4.4969,-4.4928,-4.4923,-4.4909,-4.4866,-4.4842,-4.473,-4.474,-4.4725,-4.471,-4.4599,-4.4598,-4.4597,-4.4631,-4.4632,-4.4633,0,0,0,0,0,0,-4.5219,-4.5144,-4.5127,-4.5085,-4.504,-4.4973,-4.4954,-4.4931,-4.4885,-4.4883,-4.4831,-4.4816,-4.4768,-4.4734,-4.4747,-4.4668,-4.4662,-4.4658,-4.4693,-4.4693,-4.4694,-4.4702,-4.4718,0,0,0,0,0,-4.5224,-4.5187,-4.5123,-4.5091,-4.507,-4.5016,-4.499,-4.4961,-4.4912,-4.4892,-4.4846,-4.4797,-4.4749,-4.472,-4.4673,-4.4626,-4.4607,-4.4608,-4.4609,-4.461,-4.4606,-4.4573,-4.4571,-4.4592,-4.4592,-4.4592,0,0,-4.5234,-4.5188,-4.5168,-4.5099,-4.5061,-4.5021,-4.5,-4.496,-4.4928,-4.4885,-4.4834,-4.4797,-4.4739,-4.4688,-4.4664,-4.4658,-4.4596,-4.4608,-4.4609,-4.4605,-4.4572,-4.457,-4.4568,-4.4592,-4.4592,-4.4592,0,0,-4.523,-4.5194,-4.5161,-4.5123,-4.5066,-4.503,-4.5022,-4.4957,-4.4932,-4.488,-4.4845,-4.4805,-4.4727,-4.4685,-4.4654,-4.463,-4.4605,-4.4616,-4.462,-4.4589,-4.4587,-4.4585,-4.4573,-4.457,-4.4613,-4.4613,-4.4613,0,-4.5249,-4.519,-4.5147,-4.5108,-4.5076,-4.5036,-4.5001,-4.4965,-4.4895,-4.4872,-4.4868,-4.4766,-4.4724,-4.4661,-4.4655,-4.4632,-4.4617,-4.4623,-4.4592,-4.4589,-4.4587,-4.4575,-4.4571,-4.4615,-4.4614,-4.4614,-4.4614,0,-4.5213,-4.5173,-4.5153,-4.5087,-4.5053,-4.5016,-4.4964,-4.4935,-4.4908,-4.4871,-4.4815,-4.4763,-4.4703,-4.4686,-4.466,-4.4617,-4.4615,-4.4602,-4.4594,-4.4587,-4.4574,-4.457,-4.4617,-4.4616,-4.4616,-4.4615,0,0,-4.5236,-4.5145,-4.5138,-4.5106,-4.5038,-4.5004,-4.4963,-4.4906,-4.4879,-4.4831,-4.4792,-4.4725,-4.4711,-4.4675,-4.4643,-4.4616,-4.4596,-4.4605,-4.4603,-4.4602,-4.4541,-4.455,-4.4546,-4.4579,-4.4578,-4.4577,-4.4545,0,-4.5222,-4.5149,-4.5107,-4.505,-4.5009,-4.4968,-4.4932,-4.4884,-4.4847,-4.4804,-4.4762,-4.4714,-4.4702,-4.4679,-4.4651,-4.4605,-4.4582,-4.4606,-4.4539,-4.4537,-4.4553,-4.454,-4.455,-4.4522,-4.454,-4.4539,-4.4538,0,-4.5196,-4.5148,-4.5088,-4.502,-4.5001,-4.497,-4.4911,-4.4872,-4.4815,-4.479,-4.4748,-4.4716,-4.4666,-4.4663,-4.4591,-4.4609,-4.4578,-4.455,-4.4548,-4.4539,-4.4536,-4.4527,-4.4512,-4.4507,-4.4531,-4.4532,-4.4532,0,-4.5215,-4.5136,-4.5088,-4.5062,-4.4983,-4.4961,-4.4927,-4.487,-4.4837,-4.4785,-4.4762,-4.4704,-4.4672,-4.4627,-4.4577,-4.458,-4.4509,-4.4503,-4.4483,-4.4484,-4.4469,-4.447,-4.4447,-4.4454,-4.4454,-4.4454,-4.4454,0,-4.5202,-4.5165,-4.5095,-4.5066,-4.5021,-4.4972,-4.4929,-4.4891,-4.484,-4.4799,-4.476,-4.4722,-4.4661,-4.4614,-4.4575,-4.4519,-4.4506,-4.4481,-4.447,-4.4483,-4.4486,-4.4461,-4.4461,-4.4453,-4.4453,-4.4453,-4.4453,0,-4.5216,-4.5168,-4.5112,-4.5042,-4.5023,-4.4993,-4.4931,-4.4898,-4.4859,-4.4807,-4.4792,-4.4728,-4.4671,-4.4618,-4.4541,-4.4514,-4.4456,-4.4445,-4.4476,-4.447,-4.4452,-4.4453,-4.441,-4.44,-4.4417,-4.4416,-4.4416,0,-4.521,-4.5181,-4.5106,-4.5077,-4.5044,-4.4997,-4.4962,-4.4911,-4.4876,-4.4807,-4.4781,-4.4721,-4.467,-4.4579,-4.4523,-4.4463,-4.4448,-4.4436,-4.4438,-4.445,-4.4443,-4.4445,-4.4439,-4.4437,-4.4437,-4.4437,-4.4437,0,-4.5203,-4.518,-4.5133,-4.5076,-4.5037,-4.4989,-4.494,-4.4917,-4.4856,-4.4818,-4.4759,-4.4719,-4.464,-4.4578,-4.4511,-4.4472,-4.4442,-4.4437,-4.4428,-4.444,-4.4458,-4.4444,-4.4475,-4.4438,-4.4438,-4.4438,-4.4438,-4.4438,-4.5205,-4.5175,-4.5118,-4.5065,-4.5023,-4.4977,-4.4942,-4.4897,-4.4848,-4.478,-4.4752,-4.4691,-4.4629,-4.4536,-4.4496,-4.4445,-4.4439,-4.4428,-4.4424,-4.4422,-4.4422,-4.4468,-4.4432,-4.4432,-4.4432,-4.4432,-4.4432,0,-4.5194,-4.5154,-4.5106,-4.5039,-4.4996,-4.4974,-4.4917,-4.4882,-4.4829,-4.4776,-4.4726,-4.4655,-4.4594,-4.4534,-4.4468,-4.4439,-4.4423,-4.4423,-4.4423,-4.4414,-4.4433,-4.4446,-4.4436,-4.4436,-4.4436,-4.4436,-4.4436,-4.4436,-4.5183,-4.513,-4.51,-4.5024,-4.4983,-4.4924,-4.4893,-4.4849,-4.4805,-4.4729,-4.4678,-4.464,-4.4581,-4.4511,-4.4452,-4.4435,-4.4412,-4.4415,-4.4394,-4.4413,-4.4413,-4.4413,-4.4424,-4.4411,-4.4411,-4.4378,-4.4378,-4.4378]}]]